Weather Roundup
Issued by NWS Chicago, IL

Home | Current Version | Previous Version | Graphics & Text | Print | Product List | Glossary On
Versions: 1 2 3 4 5 6 7 8 9 10 11 12 13 14 15 16 17 18 19 20 21 22 23 24 25 26 27 28 29 30 31 32 33 34 35 36 37 38 39 40 41 42 43 44 45 46 47 48 49 50
000
NZUS59 KLOT 291400
HRRLOT

CHICAGO AREA WEATHER ROUNDUP
NATIONAL WEATHER SERVICE CHICAGO/ROMEOVILLE IL
900 AM CDT WED JUL 29 2015

NOTE: "FAIR" INDICATES FEW OR NO CLOUDS BELOW 12,000 FEET WITH NO
SIGNIFICANT WEATHER AND/OR OBSTRUCTIONS TO VISIBILITY.

* THESE STATIONS ARE NOT UNDER NWS QUALITY CONTROL. THEY ALSO MAY NOT
  REPORT WEATHER SUCH AS PRECIPITATION OR FOG.

ILZ005-006-012>014-019>023-291500-
NORTHEAST ILLINOIS

CITY           SKY/WX    TMP DP  RH WIND       PRES   REMARKS
OHARE          CLOUDY    78  72  81 NW9       29.94F HX  80
MIDWAY         CLOUDY    79  71  76 NW8       29.95S HX  82
AURORA         CLOUDY    78  72  81 NW14G20   29.97S HX  80
WAUKEGAN       NOT AVBL
DUPAGE AIRPORT CLOUDY    77  71  82 NW14G22   29.97R
WHEELING       CLOUDY    78  72  81 NW14      29.96S HX  80
NORTHERLY IS     N/A     78  70  76 NW2         N/A  HX  80
$$

WIZ051-052-058>065-066-070>072-291500-
SOUTHEAST WISCONSIN

CITY           SKY/WX    TMP DP  RH WIND       PRES   REMARKS
MILWAUKEE      CLOUDY    77  64  64 NW12      29.95R
KENOSHA*       CLOUDY    76  70  82 NW13G20   29.97R
RACINE*        CLOUDY    79  67  66 NW10G20   29.97R HX  81
WAUKESHA       MOSUNNY   73  64  73 NW12      29.98R
$$

INZ001>003-010>013-019-020-291500-
NORTHWEST INDIANA

CITY           SKY/WX    TMP DP  RH WIND       PRES   REMARKS
GARY*          PTSUNNY   79  75  89 W8        29.96S HX  82
MICHIGAN CITY* NOT AVBL
RENSSELAER*    NOT AVBL
$$

LMZ740>746-291500-
SOUTHERN LAKE MICHIGAN

STATION/POSITION TIME  SKY/WX   TEMP WIND        PRES    VSBY
                                AIR  DIR/SP/G
                 (UTC)          (F)  (DEG/KT/KT) (MB)    (MI)
HARRISON CRIB    1300            76  260/ 13/ 15   N/A
BURNHAM HARBOR   1300            77  240/ 11/ 12   N/A
CALUMET HARBOR   1300            76  240/  4/  8   N/A
BURNS HARBOR     1300            76  230/  7/ 10 1014.9R
MICHIGAN CITY    1300            74  230/  8/  8   N/A
$$

ABBREVIATIONS USED IN REMARKS
   TC - TEMPERATURE IN CELSIUS
  WCI - WIND CHILL INDEX
   HX - HEAT INDEX
  VSB - VISIBILITY
$$


USA.gov is the U.S. government's official web portal to all federal, state and local government web resources and services.